Powrót do katalogu

STARLINK-36145

AktywnyŁącznośćVLEO
NORAD 66983·PAYLOAD·🇺🇸 United States

Wystrzelony Dec 8, 2025 z Cape Canaveral Space Force Station

Loading…

Następne Przeloty (najbliższe 24 godziny)

TLE

ŚwieżeSource: CelesTrak SupGP

Epoka: Sep 14, 2026, 22:51 UTC

1 66983C 25288AA  26257.95256944  .00015324  00000+0  55498-3 0  2578
2 66983  43.0041  34.7373 0001579 276.0674 349.8269 15.27573358    15

Śledź STARLINK-36145 w czasie rzeczywistym z AllMySat

Download on the App Store